Location: *
(33.6842°N, 117.7925°W)
Time: 08:04:29
(UTC+00:00)

Cosmos 1892 Rocket - Pass Details

Date: 21 October 2019
Orbit: 605 x 634 km, 82.5° (Epoch: 18 November)

Event Time Altitude Azimuth Distance (km) Brightness Sun altitude
Rises 12:25:22 0° 186° (S) 2,902 6.9 -20.5°
Reaches altitude 10° 12:27:35 10° 187° (S) 1,995 6.1 -20.1°
Maximum altitude 12:32:01 86° 273° (W) 630 3.4 -19.1°
Drops below altitude 10° 12:36:27 10° 5° (N) 1,991 6.2 -18.2°
Sets 12:38:40 0° 6° (N) 2,896 7.1 -17.8°
